Year,Month,Day,Hour,Minute,Value (Times are PST for temperature in C)
2015,11,14,01,31,9.60
2015,11,14,01,32,9.60
2015,11,14,01,33,9.60
2015,11,14,01,34,9.60
2015,11,14,01,35,9.60
2015,11,14,01,36,9.60
2015,11,14,01,37,9.60
2015,11,14,01,38,9.60
2015,11,14,01,39,9.60
2015,11,14,01,40,9.60
2015,11,14,01,41,9.60
2015,11,14,01,42,9.60
2015,11,14,01,43,9.60
2015,11,14,01,44,9.60
2015,11,14,01,45,9.60
2015,11,14,01,46,9.60
2015,11,14,01,47,9.60
2015,11,14,01,48,9.60
2015,11,14,01,49,9.60
2015,11,14,01,50,9.60
2015,11,14,01,51,9.60
2015,11,14,01,52,9.60
2015,11,14,01,53,9.60
2015,11,14,01,54,9.60
2015,11,14,01,55,9.60
2015,11,14,01,56,9.60
2015,11,14,01,57,9.60
2015,11,14,01,58,9.60
2015,11,14,01,59,9.60
2015,11,14,02,00,9.60
2015,11,14,02,01,9.30
2015,11,14,02,02,9.30
2015,11,14,02,03,9.30
2015,11,14,02,04,9.30
2015,11,14,02,05,9.30
2015,11,14,02,06,9.30
2015,11,14,02,07,9.30
2015,11,14,02,08,9.30
2015,11,14,02,09,9.30
2015,11,14,02,10,9.30
2015,11,14,02,11,9.30
2015,11,14,02,12,9.30
2015,11,14,02,13,9.30
2015,11,14,02,14,9.30
2015,11,14,02,15,9.30
2015,11,14,02,16,9.30
2015,11,14,02,17,9.30
2015,11,14,02,18,9.30
2015,11,14,02,19,9.30
2015,11,14,02,20,9.30
2015,11,14,02,21,9.30
2015,11,14,02,22,9.30
2015,11,14,02,23,9.30
2015,11,14,02,24,9.30
2015,11,14,02,25,9.30
2015,11,14,02,26,9.30
2015,11,14,02,27,9.30
2015,11,14,02,28,9.30
2015,11,14,02,29,9.30
2015,11,14,02,30,9.30
2015,11,14,02,31,9.40
2015,11,14,02,32,9.40
2015,11,14,02,33,9.40
2015,11,14,02,34,9.40
2015,11,14,02,35,9.40
2015,11,14,02,36,9.40
2015,11,14,02,37,9.40
2015,11,14,02,38,9.40
2015,11,14,02,39,9.40
2015,11,14,02,40,9.40
2015,11,14,02,41,9.40
2015,11,14,02,42,9.40
2015,11,14,02,43,9.40
2015,11,14,02,44,9.40
2015,11,14,02,45,9.40
2015,11,14,02,46,9.40
2015,11,14,02,47,9.40
2015,11,14,02,48,9.40
2015,11,14,02,49,9.40
2015,11,14,02,50,9.40
2015,11,14,02,51,9.40
2015,11,14,02,52,9.40
2015,11,14,02,53,9.40
2015,11,14,02,54,9.40
2015,11,14,02,55,9.40
2015,11,14,02,56,9.40
2015,11,14,02,57,9.40
2015,11,14,02,58,9.40
2015,11,14,02,59,9.40
2015,11,14,03,00,9.40
2015,11,14,03,01,9.40
2015,11,14,03,02,9.40
2015,11,14,03,03,9.40
2015,11,14,03,04,9.40
2015,11,14,03,05,9.40
2015,11,14,03,06,9.40
2015,11,14,03,07,9.40
2015,11,14,03,08,9.40
2015,11,14,03,09,9.40
2015,11,14,03,10,9.40
2015,11,14,03,11,9.40
2015,11,14,03,12,9.40
2015,11,14,03,13,9.40
2015,11,14,03,14,9.40
2015,11,14,03,15,9.40
2015,11,14,03,16,9.40
2015,11,14,03,17,9.40
2015,11,14,03,18,9.40
2015,11,14,03,19,9.40
2015,11,14,03,20,9.40
2015,11,14,03,21,9.40
2015,11,14,03,22,9.40
2015,11,14,03,23,9.40
2015,11,14,03,24,9.40
2015,11,14,03,25,9.40
2015,11,14,03,26,9.40
2015,11,14,03,27,9.40
2015,11,14,03,28,9.40
2015,11,14,03,29,9.40
2015,11,14,03,30,9.40
2015,11,14,03,31,9.00
2015,11,14,03,32,9.00
2015,11,14,03,33,9.00
2015,11,14,03,34,9.00
2015,11,14,03,35,9.00
2015,11,14,03,36,9.00
2015,11,14,03,37,9.00
2015,11,14,03,38,9.00
2015,11,14,03,39,9.00
2015,11,14,03,40,9.00
2015,11,14,03,41,9.00
2015,11,14,03,42,9.00
2015,11,14,03,43,9.00
2015,11,14,03,44,9.00
2015,11,14,03,45,9.00
2015,11,14,03,46,9.00
2015,11,14,03,47,9.00
2015,11,14,03,48,9.00
2015,11,14,03,49,9.00
2015,11,14,03,50,9.00
2015,11,14,03,51,9.00
2015,11,14,03,52,9.00
2015,11,14,03,53,9.00
2015,11,14,03,54,9.00
2015,11,14,03,55,9.00
2015,11,14,03,56,9.00
2015,11,14,03,57,9.00
2015,11,14,03,58,9.00
2015,11,14,03,59,9.00
2015,11,14,04,00,9.00
2015,11,14,04,01,9.00
2015,11,14,04,02,9.00
2015,11,14,04,03,9.00
2015,11,14,04,04,9.00
2015,11,14,04,05,9.00
2015,11,14,04,06,9.00
2015,11,14,04,07,9.00
2015,11,14,04,08,9.00
2015,11,14,04,09,9.00
2015,11,14,04,10,9.00
2015,11,14,04,11,9.00
2015,11,14,04,12,9.00
2015,11,14,04,13,9.00
2015,11,14,04,14,9.00
2015,11,14,04,15,9.00
2015,11,14,04,16,9.00
2015,11,14,04,17,9.00
2015,11,14,04,18,9.00
2015,11,14,04,19,9.00
2015,11,14,04,20,9.00
2015,11,14,04,21,9.00
2015,11,14,04,22,9.00
2015,11,14,04,23,9.00
2015,11,14,04,24,9.00
2015,11,14,04,25,9.00
2015,11,14,04,26,9.00
2015,11,14,04,27,9.00
2015,11,14,04,28,9.00
2015,11,14,04,29,9.00
2015,11,14,04,30,9.00
2015,11,14,04,31,8.90
2015,11,14,04,32,8.90
2015,11,14,04,33,8.90
2015,11,14,04,34,8.90
2015,11,14,04,35,8.90
2015,11,14,04,36,8.90
2015,11,14,04,37,8.90
2015,11,14,04,38,8.90
2015,11,14,04,39,8.90
2015,11,14,04,40,8.90
2015,11,14,04,41,8.90
2015,11,14,04,42,8.90
2015,11,14,04,43,8.90
2015,11,14,04,44,8.90
2015,11,14,04,45,8.90
2015,11,14,04,46,8.90
2015,11,14,04,47,8.90
2015,11,14,04,48,8.90
2015,11,14,04,49,8.90
2015,11,14,04,50,8.90
2015,11,14,04,51,8.90
2015,11,14,04,52,8.90
2015,11,14,04,53,8.90
2015,11,14,04,54,8.90
2015,11,14,04,55,8.90
2015,11,14,04,56,8.90
2015,11,14,04,57,8.90
2015,11,14,04,58,8.90
2015,11,14,04,59,8.90
2015,11,14,05,00,8.90
2015,11,14,05,01,8.90
2015,11,14,05,02,8.90
2015,11,14,05,03,8.90
2015,11,14,05,04,8.90
2015,11,14,05,05,8.90
2015,11,14,05,06,8.90
2015,11,14,05,07,8.90
2015,11,14,05,08,8.90
2015,11,14,05,09,8.90
2015,11,14,05,10,8.90
2015,11,14,05,11,8.90
2015,11,14,05,12,8.90
2015,11,14,05,13,8.90
2015,11,14,05,14,8.90
2015,11,14,05,15,8.90
2015,11,14,05,16,8.90
2015,11,14,05,17,8.90
2015,11,14,05,18,8.90
2015,11,14,05,19,8.90
2015,11,14,05,20,8.90
2015,11,14,05,21,8.90
2015,11,14,05,22,8.90
2015,11,14,05,23,8.90
2015,11,14,05,24,8.90
2015,11,14,05,25,8.90
2015,11,14,05,26,8.90
2015,11,14,05,27,8.90
2015,11,14,05,28,8.90
2015,11,14,05,29,8.90
2015,11,14,05,30,8.90
2015,11,14,05,31,8.90
2015,11,14,05,32,8.90
2015,11,14,05,33,8.90
2015,11,14,05,34,8.90
2015,11,14,05,35,8.90
2015,11,14,05,36,8.90
2015,11,14,05,37,8.90
2015,11,14,05,38,8.90
2015,11,14,05,39,8.90
2015,11,14,05,40,8.90
2015,11,14,05,41,8.90
2015,11,14,05,42,8.90
2015,11,14,05,43,8.90
2015,11,14,05,44,8.90
2015,11,14,05,45,8.90
2015,11,14,05,46,8.90
2015,11,14,05,47,8.90
2015,11,14,05,48,8.90
2015,11,14,05,49,8.90
2015,11,14,05,50,8.90
2015,11,14,05,51,8.90
2015,11,14,05,52,8.90
2015,11,14,05,53,8.90
2015,11,14,05,54,8.90
2015,11,14,05,55,8.90
2015,11,14,05,56,8.90
2015,11,14,05,57,8.90
2015,11,14,05,58,8.90
2015,11,14,05,59,8.90
2015,11,14,06,00,8.90
2015,11,14,06,01,8.80
2015,11,14,06,02,8.80
2015,11,14,06,03,8.80
2015,11,14,06,04,8.80
2015,11,14,06,05,8.80
2015,11,14,06,06,8.80
2015,11,14,06,07,8.80
2015,11,14,06,08,8.80
2015,11,14,06,09,8.80
2015,11,14,06,10,8.80
2015,11,14,06,11,8.80
2015,11,14,06,12,8.80
2015,11,14,06,13,8.80
2015,11,14,06,14,8.80
2015,11,14,06,15,8.80
2015,11,14,06,16,8.80
2015,11,14,06,17,8.80
2015,11,14,06,18,8.80
2015,11,14,06,19,8.80
2015,11,14,06,20,8.80
2015,11,14,06,21,8.80
2015,11,14,06,22,8.80
2015,11,14,06,23,8.80
2015,11,14,06,24,8.80
2015,11,14,06,25,8.80
2015,11,14,06,26,8.80
2015,11,14,06,27,8.80
2015,11,14,06,28,8.80
2015,11,14,06,29,8.80
2015,11,14,06,30,8.80
2015,11,14,06,31,8.80
2015,11,14,06,32,8.80
2015,11,14,06,33,8.80
2015,11,14,06,34,8.80
2015,11,14,06,35,8.80
2015,11,14,06,36,8.80
2015,11,14,06,37,8.80
2015,11,14,06,38,8.80
2015,11,14,06,39,8.80
2015,11,14,06,40,8.80
2015,11,14,06,41,8.80
2015,11,14,06,42,8.80
2015,11,14,06,43,8.80
2015,11,14,06,44,8.80
2015,11,14,06,45,8.80
2015,11,14,06,46,8.80
2015,11,14,06,47,8.80
2015,11,14,06,48,8.80
2015,11,14,06,49,8.80
2015,11,14,06,50,8.80
2015,11,14,06,51,8.80
2015,11,14,06,52,8.80
2015,11,14,06,53,8.80
2015,11,14,06,54,8.80
2015,11,14,06,55,8.80
2015,11,14,06,56,8.80
2015,11,14,06,57,8.80
2015,11,14,06,58,8.80
2015,11,14,06,59,8.80
2015,11,14,07,00,8.80
2015,11,14,07,01,8.80
2015,11,14,07,02,8.80
2015,11,14,07,03,8.80
2015,11,14,07,04,8.80
2015,11,14,07,05,8.80
2015,11,14,07,06,8.80
2015,11,14,07,07,8.80
2015,11,14,07,08,8.80
2015,11,14,07,09,8.80
2015,11,14,07,10,8.80
2015,11,14,07,11,8.80
2015,11,14,07,12,8.80
2015,11,14,07,13,8.80
2015,11,14,07,14,8.80
2015,11,14,07,15,8.80
2015,11,14,07,16,8.80
2015,11,14,07,17,8.80
2015,11,14,07,18,8.80
2015,11,14,07,19,8.80
2015,11,14,07,20,8.80
2015,11,14,07,21,8.80
2015,11,14,07,22,8.80
2015,11,14,07,23,8.80
2015,11,14,07,24,8.80
2015,11,14,07,25,8.80
2015,11,14,07,26,8.80
2015,11,14,07,27,8.80
2015,11,14,07,28,8.80
2015,11,14,07,29,8.80
2015,11,14,07,30,8.80
2015,11,14,07,31,8.80
2015,11,14,07,32,8.80
2015,11,14,07,33,8.80
2015,11,14,07,34,8.80
2015,11,14,07,35,8.80
2015,11,14,07,36,8.80
2015,11,14,07,37,8.80
2015,11,14,07,38,8.80
2015,11,14,07,39,8.80
2015,11,14,07,40,8.80
2015,11,14,07,41,8.80
2015,11,14,07,42,8.80
2015,11,14,07,43,8.80
2015,11,14,07,44,8.80
2015,11,14,07,45,8.80
2015,11,14,07,46,8.80
2015,11,14,07,47,8.80
2015,11,14,07,48,8.80
2015,11,14,07,49,8.80
2015,11,14,07,50,8.80
2015,11,14,07,51,8.80
2015,11,14,07,52,8.80
2015,11,14,07,53,8.80
2015,11,14,07,54,8.80
2015,11,14,07,55,8.80
2015,11,14,07,56,8.80
2015,11,14,07,57,8.80
2015,11,14,07,58,8.80
2015,11,14,07,59,8.80
2015,11,14,08,00,8.80
2015,11,14,08,01,9.20
2015,11,14,08,02,9.20
2015,11,14,08,03,9.20
2015,11,14,08,04,9.20
2015,11,14,08,05,9.20
2015,11,14,08,06,9.20
2015,11,14,08,07,9.20
2015,11,14,08,08,9.20
2015,11,14,08,09,9.20
2015,11,14,08,10,9.20
2015,11,14,08,11,9.20
2015,11,14,08,12,9.20
2015,11,14,08,13,9.20
2015,11,14,08,14,9.20
2015,11,14,08,15,9.20
2015,11,14,08,16,9.20
2015,11,14,08,17,9.20
2015,11,14,08,18,9.20
2015,11,14,08,19,9.20
2015,11,14,08,20,9.20
2015,11,14,08,21,9.20
2015,11,14,08,22,9.20
2015,11,14,08,23,9.20
2015,11,14,08,24,9.20
2015,11,14,08,25,9.20
2015,11,14,08,26,9.20
2015,11,14,08,27,9.20
2015,11,14,08,28,9.20
2015,11,14,08,29,9.20
2015,11,14,08,30,9.20
2015,11,14,08,31,9.10
2015,11,14,08,32,9.10
2015,11,14,08,33,9.10
2015,11,14,08,34,9.10
2015,11,14,08,35,9.10
2015,11,14,08,36,9.10
2015,11,14,08,37,9.10
2015,11,14,08,38,9.10
2015,11,14,08,39,9.10
2015,11,14,08,40,9.10
2015,11,14,08,41,9.10
2015,11,14,08,42,9.10
2015,11,14,08,43,9.10
2015,11,14,08,44,9.10
2015,11,14,08,45,9.10
2015,11,14,08,46,9.10
2015,11,14,08,47,9.10
2015,11,14,08,48,9.10
2015,11,14,08,49,9.10
2015,11,14,08,50,9.10
2015,11,14,08,51,9.10
2015,11,14,08,52,9.10
2015,11,14,08,53,9.10
2015,11,14,08,54,9.10
2015,11,14,08,55,9.10
2015,11,14,08,56,9.10
2015,11,14,08,57,9.10
2015,11,14,08,58,9.10
2015,11,14,08,59,9.10
2015,11,14,09,00,9.10
2015,11,14,09,01,9.30
2015,11,14,09,02,9.30
2015,11,14,09,03,9.30
2015,11,14,09,04,9.30
2015,11,14,09,05,9.30
2015,11,14,09,06,9.30
2015,11,14,09,07,9.30
2015,11,14,09,08,9.30
2015,11,14,09,09,9.30
2015,11,14,09,10,9.30
2015,11,14,09,11,9.30
2015,11,14,09,12,9.30
2015,11,14,09,13,9.30
2015,11,14,09,14,9.30
2015,11,14,09,15,9.30
2015,11,14,09,16,9.30
2015,11,14,09,17,9.30
2015,11,14,09,18,9.30
2015,11,14,09,19,9.30
2015,11,14,09,20,9.30
2015,11,14,09,21,9.30
2015,11,14,09,22,9.30
2015,11,14,09,23,9.30
2015,11,14,09,24,9.30
2015,11,14,09,25,9.30
2015,11,14,09,26,9.30
2015,11,14,09,27,9.30
2015,11,14,09,28,9.30
2015,11,14,09,29,9.30
2015,11,14,09,30,9.30
2015,11,14,09,31,9.30
2015,11,14,09,32,9.30
2015,11,14,09,33,9.30
2015,11,14,09,34,9.30
2015,11,14,09,35,9.30
2015,11,14,09,36,9.30
2015,11,14,09,37,9.30
2015,11,14,09,38,9.30
2015,11,14,09,39,9.30
2015,11,14,09,40,9.30
2015,11,14,09,41,9.30
2015,11,14,09,42,9.30
2015,11,14,09,43,9.30
2015,11,14,09,44,9.30
2015,11,14,09,45,9.30
2015,11,14,09,46,9.30
2015,11,14,09,47,9.30
2015,11,14,09,48,9.30
2015,11,14,09,49,9.30
2015,11,14,09,50,9.30
2015,11,14,09,51,9.30
2015,11,14,09,52,9.30
2015,11,14,09,53,9.30
2015,11,14,09,54,9.30
2015,11,14,09,55,9.30
2015,11,14,09,56,9.30
2015,11,14,09,57,9.30
2015,11,14,09,58,9.30
2015,11,14,09,59,9.30
2015,11,14,10,00,9.30
2015,11,14,10,01,9.10
2015,11,14,10,02,9.10
2015,11,14,10,03,9.10
2015,11,14,10,04,9.10
2015,11,14,10,05,9.10
2015,11,14,10,06,9.10
2015,11,14,10,07,9.10
2015,11,14,10,08,9.10
2015,11,14,10,09,9.10
2015,11,14,10,10,9.10
2015,11,14,10,11,9.10
2015,11,14,10,12,9.10
2015,11,14,10,13,9.10
2015,11,14,10,14,9.10
2015,11,14,10,15,9.10
2015,11,14,10,16,9.10
2015,11,14,10,17,9.10
2015,11,14,10,18,9.10
2015,11,14,10,19,9.10
2015,11,14,10,20,9.10
2015,11,14,10,21,9.10
2015,11,14,10,22,9.10
2015,11,14,10,23,9.10
2015,11,14,10,24,9.10
2015,11,14,10,25,9.10
2015,11,14,10,26,9.10
2015,11,14,10,27,9.10
2015,11,14,10,28,9.10
2015,11,14,10,29,9.10
2015,11,14,10,30,9.10
2015,11,14,10,31,9.10
2015,11,14,10,32,9.10
2015,11,14,10,33,9.10
2015,11,14,10,34,9.10
2015,11,14,10,35,9.10
2015,11,14,10,36,9.10
2015,11,14,10,37,9.10
2015,11,14,10,38,9.10
2015,11,14,10,39,9.10
2015,11,14,10,40,9.10
2015,11,14,10,41,9.10
2015,11,14,10,42,9.10
2015,11,14,10,43,9.10
2015,11,14,10,44,9.10
2015,11,14,10,45,9.10
2015,11,14,10,46,9.10
2015,11,14,10,47,9.10
2015,11,14,10,48,9.10
2015,11,14,10,49,9.10
2015,11,14,10,50,9.10
2015,11,14,10,51,9.10
2015,11,14,10,52,9.10
2015,11,14,10,53,9.10
2015,11,14,10,54,9.10
2015,11,14,10,55,9.10
2015,11,14,10,56,9.10
2015,11,14,10,57,9.10
2015,11,14,10,58,9.10
2015,11,14,10,59,9.10
2015,11,14,11,00,9.10
2015,11,14,11,01,9.10
2015,11,14,11,02,9.10
2015,11,14,11,03,9.10
2015,11,14,11,04,9.10
2015,11,14,11,05,9.10
2015,11,14,11,06,9.10
2015,11,14,11,07,9.10
2015,11,14,11,08,9.10
2015,11,14,11,09,9.10
2015,11,14,11,10,9.10
2015,11,14,11,11,9.10
2015,11,14,11,12,9.10
2015,11,14,11,13,9.10
2015,11,14,11,14,9.10
2015,11,14,11,15,9.10
2015,11,14,11,16,9.10
2015,11,14,11,17,9.10
2015,11,14,11,18,9.10
2015,11,14,11,19,9.10
2015,11,14,11,20,9.10
2015,11,14,11,21,9.10
2015,11,14,11,22,9.10
2015,11,14,11,23,9.10
2015,11,14,11,24,9.10
2015,11,14,11,25,9.10
2015,11,14,11,26,9.10
2015,11,14,11,27,9.10
2015,11,14,11,28,9.10
2015,11,14,11,29,9.10
2015,11,14,11,30,9.10
2015,11,14,11,31,9.20
2015,11,14,11,32,9.20
2015,11,14,11,33,9.20
2015,11,14,11,34,9.20
2015,11,14,11,35,9.20
2015,11,14,11,36,9.20
2015,11,14,11,37,9.20
2015,11,14,11,38,9.20
2015,11,14,11,39,9.20
2015,11,14,11,40,9.20
2015,11,14,11,41,9.20
2015,11,14,11,42,9.20
2015,11,14,11,43,9.20
2015,11,14,11,44,9.20
2015,11,14,11,45,9.20
2015,11,14,11,46,9.20
2015,11,14,11,47,9.20
2015,11,14,11,48,9.20
2015,11,14,11,49,9.20
2015,11,14,11,50,9.20
2015,11,14,11,51,9.20
2015,11,14,11,52,9.20
2015,11,14,11,53,9.20
2015,11,14,11,54,9.20
2015,11,14,11,55,9.20
2015,11,14,11,56,9.20
2015,11,14,11,57,9.20
2015,11,14,11,58,9.20
2015,11,14,11,59,9.20
2015,11,14,12,00,9.20
2015,11,14,12,01,9.20
2015,11,14,12,02,9.20
2015,11,14,12,03,9.20
2015,11,14,12,04,9.20
2015,11,14,12,05,9.20
2015,11,14,12,06,9.20
2015,11,14,12,07,9.20
2015,11,14,12,08,9.20
2015,11,14,12,09,9.20
2015,11,14,12,10,9.20
2015,11,14,12,11,9.20
2015,11,14,12,12,9.20
2015,11,14,12,13,9.20
2015,11,14,12,14,9.20
2015,11,14,12,15,9.20
2015,11,14,12,16,9.20
2015,11,14,12,17,9.20
2015,11,14,12,18,9.20
2015,11,14,12,19,9.20
2015,11,14,12,20,9.20
2015,11,14,12,21,9.20
2015,11,14,12,22,9.20
2015,11,14,12,23,9.20
2015,11,14,12,24,9.20
2015,11,14,12,25,9.20
2015,11,14,12,26,9.20
2015,11,14,12,27,9.20
2015,11,14,12,28,9.20
2015,11,14,12,29,9.20
2015,11,14,12,30,9.20
2015,11,14,12,31,9.00
2015,11,14,12,32,9.00
2015,11,14,12,33,9.00
2015,11,14,12,34,9.00
2015,11,14,12,35,9.00
2015,11,14,12,36,9.00
2015,11,14,12,37,9.00
2015,11,14,12,38,9.00
2015,11,14,12,39,9.00
2015,11,14,12,40,9.00
2015,11,14,12,41,9.00
2015,11,14,12,42,9.00
2015,11,14,12,43,9.00
2015,11,14,12,44,9.00
2015,11,14,12,45,9.00
2015,11,14,12,46,9.00
2015,11,14,12,47,9.00
2015,11,14,12,48,9.00
2015,11,14,12,49,9.00
2015,11,14,12,50,9.00
2015,11,14,12,51,9.00
2015,11,14,12,52,9.00
2015,11,14,12,53,9.00
2015,11,14,12,54,9.00
2015,11,14,12,55,9.00
2015,11,14,12,56,9.00
2015,11,14,12,57,9.00
2015,11,14,12,58,9.00
2015,11,14,12,59,9.00
2015,11,14,13,00,9.00
2015,11,14,13,01,9.10
2015,11,14,13,02,9.10
2015,11,14,13,03,9.10
2015,11,14,13,04,9.10
2015,11,14,13,05,9.10
2015,11,14,13,06,9.10
2015,11,14,13,07,9.10
2015,11,14,13,08,9.10
2015,11,14,13,09,9.10
2015,11,14,13,10,9.10
2015,11,14,13,11,9.10
2015,11,14,13,12,9.10
2015,11,14,13,13,9.10
2015,11,14,13,14,9.10
2015,11,14,13,15,9.10
2015,11,14,13,16,9.10
2015,11,14,13,17,9.10
2015,11,14,13,18,9.10
2015,11,14,13,19,9.10
2015,11,14,13,20,9.10
2015,11,14,13,21,9.10
2015,11,14,13,22,9.10
2015,11,14,13,23,9.10
2015,11,14,13,24,9.10
2015,11,14,13,25,9.10
2015,11,14,13,26,9.10
2015,11,14,13,27,9.10
2015,11,14,13,28,9.10
2015,11,14,13,29,9.10
2015,11,14,13,30,9.10
2015,11,14,13,31,9.10
2015,11,14,13,32,9.10
2015,11,14,13,33,9.10
2015,11,14,13,34,9.10
2015,11,14,13,35,9.10
2015,11,14,13,36,9.10
2015,11,14,13,37,9.10
2015,11,14,13,38,9.10
2015,11,14,13,39,9.10
2015,11,14,13,40,9.10
2015,11,14,13,41,9.10
2015,11,14,13,42,9.10
2015,11,14,13,43,9.10
2015,11,14,13,44,9.10
2015,11,14,13,45,9.10
2015,11,14,13,46,9.10
2015,11,14,13,47,9.10
2015,11,14,13,48,9.10
2015,11,14,13,49,9.10
2015,11,14,13,50,9.10
2015,11,14,13,51,9.10
2015,11,14,13,52,9.10
2015,11,14,13,53,9.10
2015,11,14,13,54,9.10
2015,11,14,13,55,9.10
2015,11,14,13,56,9.10
2015,11,14,13,57,9.10
2015,11,14,13,58,9.10
2015,11,14,13,59,9.10
2015,11,14,14,00,9.10
2015,11,14,14,01,9.20
2015,11,14,14,02,9.20
2015,11,14,14,03,9.20
2015,11,14,14,04,9.20
2015,11,14,14,05,9.20
2015,11,14,14,06,9.20
2015,11,14,14,07,9.20
2015,11,14,14,08,9.20
2015,11,14,14,09,9.20
2015,11,14,14,10,9.20
2015,11,14,14,11,9.20
2015,11,14,14,12,9.20
2015,11,14,14,13,9.20
2015,11,14,14,14,9.20
2015,11,14,14,15,9.20
2015,11,14,14,16,9.20
2015,11,14,14,17,9.20
2015,11,14,14,18,9.20
2015,11,14,14,19,9.20
2015,11,14,14,20,9.20
2015,11,14,14,21,9.20
2015,11,14,14,22,9.20
2015,11,14,14,23,9.20
2015,11,14,14,24,9.20
2015,11,14,14,25,9.20
2015,11,14,14,26,9.20
2015,11,14,14,27,9.20
2015,11,14,14,28,9.20
2015,11,14,14,29,9.20
2015,11,14,14,30,9.20
2015,11,14,14,31,9.20
2015,11,14,14,32,9.20
2015,11,14,14,33,9.20
2015,11,14,14,34,9.20
2015,11,14,14,35,9.20
2015,11,14,14,36,9.20
2015,11,14,14,37,9.20
2015,11,14,14,38,9.20
2015,11,14,14,39,9.20
2015,11,14,14,40,9.20
2015,11,14,14,41,9.20
2015,11,14,14,42,9.20
2015,11,14,14,43,9.20
2015,11,14,14,44,9.20
2015,11,14,14,45,9.20
2015,11,14,14,46,9.20
2015,11,14,14,47,9.20
2015,11,14,14,48,9.20
2015,11,14,14,49,9.20
2015,11,14,14,50,9.20
2015,11,14,14,51,9.20
2015,11,14,14,52,9.20
2015,11,14,14,53,9.20
2015,11,14,14,54,9.20
2015,11,14,14,55,9.20
2015,11,14,14,56,9.20
2015,11,14,14,57,9.20
2015,11,14,14,58,9.20
2015,11,14,14,59,9.20
2015,11,14,15,00,9.20
2015,11,14,15,01,9.10
2015,11,14,15,02,9.10
2015,11,14,15,03,9.10
2015,11,14,15,04,9.10
2015,11,14,15,05,9.10
2015,11,14,15,06,9.10
2015,11,14,15,07,9.10
2015,11,14,15,08,9.10
2015,11,14,15,09,9.10
2015,11,14,15,10,9.10
2015,11,14,15,11,9.10
2015,11,14,15,12,9.10
2015,11,14,15,13,9.10
2015,11,14,15,14,9.10
2015,11,14,15,15,9.10
2015,11,14,15,16,9.10
2015,11,14,15,17,9.10
2015,11,14,15,18,9.10
2015,11,14,15,19,9.10
2015,11,14,15,20,9.10
2015,11,14,15,21,9.10
2015,11,14,15,22,9.10
2015,11,14,15,23,9.10
2015,11,14,15,24,9.10
2015,11,14,15,25,9.10
2015,11,14,15,26,9.10
2015,11,14,15,27,9.10
2015,11,14,15,28,9.10
2015,11,14,15,29,9.10
2015,11,14,15,30,9.10
2015,11,14,15,31,7.80
2015,11,14,15,32,7.80
2015,11,14,15,33,7.80
2015,11,14,15,34,7.80
2015,11,14,15,35,7.80
2015,11,14,15,36,7.80
2015,11,14,15,37,7.80
2015,11,14,15,38,7.80
2015,11,14,15,39,7.80
2015,11,14,15,40,7.80
2015,11,14,15,41,7.80
2015,11,14,15,42,7.80
2015,11,14,15,43,7.80
2015,11,14,15,44,7.80
2015,11,14,15,45,7.80
2015,11,14,15,46,7.80
2015,11,14,15,47,7.80
2015,11,14,15,48,7.80
2015,11,14,15,49,7.80
2015,11,14,15,50,7.80
2015,11,14,15,51,7.80
2015,11,14,15,52,7.80
2015,11,14,15,53,7.80
2015,11,14,15,54,7.80
2015,11,14,15,55,7.80
2015,11,14,15,56,7.80
2015,11,14,15,57,7.80
2015,11,14,15,58,7.80
2015,11,14,15,59,7.80
2015,11,14,16,00,7.80
2015,11,14,16,01,8.50
2015,11,14,16,02,8.50
2015,11,14,16,03,8.50
2015,11,14,16,04,8.50
2015,11,14,16,05,8.50
2015,11,14,16,06,8.50
2015,11,14,16,07,8.50
2015,11,14,16,08,8.50
2015,11,14,16,09,8.50
2015,11,14,16,10,8.50
2015,11,14,16,11,8.50
2015,11,14,16,12,8.50
2015,11,14,16,13,8.50
2015,11,14,16,14,8.50
2015,11,14,16,15,8.50
2015,11,14,16,16,8.50
2015,11,14,16,17,8.50
2015,11,14,16,18,8.50
2015,11,14,16,19,8.50
2015,11,14,16,20,8.50
2015,11,14,16,21,8.50
2015,11,14,16,22,8.50
2015,11,14,16,23,8.50
2015,11,14,16,24,8.50
2015,11,14,16,25,8.50
2015,11,14,16,26,8.50
2015,11,14,16,27,8.50
2015,11,14,16,28,8.50
2015,11,14,16,29,8.50
2015,11,14,16,30,8.50
2015,11,14,16,31,8.60
2015,11,14,16,32,8.60
2015,11,14,16,33,8.60
2015,11,14,16,34,8.60
2015,11,14,16,35,8.60
2015,11,14,16,36,8.60
2015,11,14,16,37,8.60
2015,11,14,16,38,8.60
2015,11,14,16,39,8.60
2015,11,14,16,40,8.60
2015,11,14,16,41,8.60
2015,11,14,16,42,8.60
2015,11,14,16,43,8.60
2015,11,14,16,44,8.60
2015,11,14,16,45,8.60
2015,11,14,16,46,8.60
2015,11,14,16,47,8.60
2015,11,14,16,48,8.60
2015,11,14,16,49,8.60
2015,11,14,16,50,8.60
2015,11,14,16,51,8.60
2015,11,14,16,52,8.60
2015,11,14,16,53,8.60
2015,11,14,16,54,8.60
2015,11,14,16,55,8.60
2015,11,14,16,56,8.60
2015,11,14,16,57,8.60
2015,11,14,16,58,8.60
2015,11,14,16,59,8.60
2015,11,14,17,00,8.60
2015,11,14,17,01,8.10
2015,11,14,17,02,8.10
2015,11,14,17,03,8.10
2015,11,14,17,04,8.10
2015,11,14,17,05,8.10
2015,11,14,17,06,8.10
2015,11,14,17,07,8.10
2015,11,14,17,08,8.10
2015,11,14,17,09,8.10
2015,11,14,17,10,8.10
2015,11,14,17,11,8.10
2015,11,14,17,12,8.10
2015,11,14,17,13,8.10
2015,11,14,17,14,8.10
2015,11,14,17,15,8.10
2015,11,14,17,16,8.10
2015,11,14,17,17,8.10
2015,11,14,17,18,8.10
2015,11,14,17,19,8.10
2015,11,14,17,20,8.10
2015,11,14,17,21,8.10
2015,11,14,17,22,8.10
2015,11,14,17,23,8.10
2015,11,14,17,24,8.10
2015,11,14,17,25,8.10
2015,11,14,17,26,8.10
2015,11,14,17,27,8.10
2015,11,14,17,28,8.10
2015,11,14,17,29,8.10
2015,11,14,17,30,8.10
2015,11,14,17,31,7.90
2015,11,14,17,32,7.90
2015,11,14,17,33,7.90
2015,11,14,17,34,7.90
2015,11,14,17,35,7.90
2015,11,14,17,36,7.90
2015,11,14,17,37,7.90
2015,11,14,17,38,7.90
2015,11,14,17,39,7.90
2015,11,14,17,40,7.90
2015,11,14,17,41,7.90
2015,11,14,17,42,7.90
2015,11,14,17,43,7.90
2015,11,14,17,44,7.90
2015,11,14,17,45,7.90
2015,11,14,17,46,7.90
2015,11,14,17,47,7.90
2015,11,14,17,48,7.90
2015,11,14,17,49,7.90
2015,11,14,17,50,7.90
2015,11,14,17,51,7.90
2015,11,14,17,52,7.90
2015,11,14,17,53,7.90
2015,11,14,17,54,7.90
2015,11,14,17,55,7.90
2015,11,14,17,56,7.90
2015,11,14,17,57,7.90
2015,11,14,17,58,7.90
2015,11,14,17,59,7.90
2015,11,14,18,00,7.90
2015,11,14,18,01,7.80
2015,11,14,18,02,7.80
2015,11,14,18,03,7.80
2015,11,14,18,04,7.80
2015,11,14,18,05,7.80
2015,11,14,18,06,7.80
2015,11,14,18,07,7.80
2015,11,14,18,08,7.80
2015,11,14,18,09,7.80
2015,11,14,18,10,7.80
2015,11,14,18,11,7.80
2015,11,14,18,12,7.80
2015,11,14,18,13,7.80
2015,11,14,18,14,7.80
2015,11,14,18,15,7.80
2015,11,14,18,16,7.80
2015,11,14,18,17,7.80
2015,11,14,18,18,7.80
2015,11,14,18,19,7.80
2015,11,14,18,20,7.80
2015,11,14,18,21,7.80
2015,11,14,18,22,7.80
2015,11,14,18,23,7.80
2015,11,14,18,24,7.80
2015,11,14,18,25,7.80
2015,11,14,18,26,7.80
2015,11,14,18,27,7.80
2015,11,14,18,28,7.80
2015,11,14,18,29,7.80
2015,11,14,18,30,7.80
2015,11,14,18,31,7.80
2015,11,14,18,32,7.80
2015,11,14,18,33,7.80
2015,11,14,18,34,7.80
2015,11,14,18,35,7.80
2015,11,14,18,36,7.80
2015,11,14,18,37,7.80
2015,11,14,18,38,7.80
2015,11,14,18,39,7.80
2015,11,14,18,40,7.80
2015,11,14,18,41,7.80
2015,11,14,18,42,7.80
2015,11,14,18,43,7.80
2015,11,14,18,44,7.80
2015,11,14,18,45,7.80
2015,11,14,18,46,7.80
2015,11,14,18,47,7.80
2015,11,14,18,48,7.80
2015,11,14,18,49,7.80
2015,11,14,18,50,7.80
2015,11,14,18,51,7.80
2015,11,14,18,52,7.80
2015,11,14,18,53,7.80
2015,11,14,18,54,7.80
2015,11,14,18,55,7.80
2015,11,14,18,56,7.80
2015,11,14,18,57,7.80
2015,11,14,18,58,7.80
2015,11,14,18,59,7.80
2015,11,14,19,00,7.80
2015,11,14,19,01,7.70
2015,11,14,19,02,7.70
2015,11,14,19,03,7.70
2015,11,14,19,04,7.70
2015,11,14,19,05,7.70
2015,11,14,19,06,7.70
2015,11,14,19,07,7.70
2015,11,14,19,08,7.70
2015,11,14,19,09,7.70
2015,11,14,19,10,7.70
2015,11,14,19,11,7.70
2015,11,14,19,12,7.70
2015,11,14,19,13,7.70
2015,11,14,19,14,7.70
2015,11,14,19,15,7.70
2015,11,14,19,16,7.70
2015,11,14,19,17,7.70
2015,11,14,19,18,7.70
2015,11,14,19,19,7.70
2015,11,14,19,20,7.70
2015,11,14,19,21,7.70
2015,11,14,19,22,7.70
2015,11,14,19,23,7.70
2015,11,14,19,24,7.70
2015,11,14,19,25,7.70
2015,11,14,19,26,7.70
2015,11,14,19,27,7.70
2015,11,14,19,28,7.70
2015,11,14,19,29,7.70
2015,11,14,19,30,7.70
2015,11,14,19,31,7.40
2015,11,14,19,32,7.40
2015,11,14,19,33,7.40
2015,11,14,19,34,7.40
2015,11,14,19,35,7.40
2015,11,14,19,36,7.40
2015,11,14,19,37,7.40